JR5YHL-13 Weather Reports


Display with metric or nautical units.
time (UTC)temp
F
wind
direction
speed
MPH
gust
MPH
rain 1hr
in
rain 24hr
in
rain mn
in
humidity
%
barometer
mb
20260509091055 70 180 2.0 3.0 0.00 0.00 0.00 36 1016.7
20260509090057 70 225 2.0 3.0 0.00 0.00 0.00 35 1016.6
20260509085100 70 90 1.0 4.0 0.00 0.00 0.00 34 1016.5
20260509084102 71 90 0.0 7.0 0.00 0.00 0.00 35 1016.5
20260509083104 72 180 2.0 5.0 0.00 0.00 0.00 35 1016.4
20260509082107 72 180 1.0 4.0 0.00 0.00 0.00 35 1016.3
20260509081109 73 180 2.0 8.0 0.00 0.00 0.00 35 1016.2
20260509080111 73 270 1.0 5.0 0.00 0.00 0.00 34 1016.1
20260509075114 74 90 4.0 9.0 0.00 0.00 0.00 33 1016.0
20260509074116 74 90 3.0 11.0 0.00 0.00 0.00 33 1016.0
20260509073118 75 90 1.0 8.0 0.00 0.00 0.00 31 1016.0
20260509072120 75 90 2.0 6.0 0.00 0.00 0.00 32 1016.0
20260509071123 74 0 0.0 9.0 0.00 0.00 0.00 32 1015.9
20260509070125 74 68 7.0 11.0 0.00 0.00 0.00 32 1015.8
20260509065127 76 270 2.0 8.0 0.00 0.00 0.00 28 1015.4
20260509064129 76 90 4.0 10.0 0.00 0.00 0.00 28 1015.5
20260509063131 75 45 3.0 9.0 0.00 0.00 0.00 28 1015.4
20260509062134 76 135 2.0 6.0 0.00 0.00 0.00 27 1015.3
20260509061136 75 90 4.0 10.0 0.00 0.00 0.00 29 1015.5
20260509060138 78 68 6.0 11.0 0.00 0.00 0.00 26 1015.2
20260509055141 76 90 3.0 6.0 0.00 0.00 0.00 27 1015.4
20260509054143 75 90 4.0 7.0 0.00 0.00 0.00 27 1015.4
20260509053145 76 113 4.0 12.0 0.00 0.00 0.00 25 1015.4
20260509052148 79 270 2.0 8.0 0.00 0.00 0.00 24 1015.2
20260509051150 81 225 2.0 10.0 0.00 0.00 0.00 23 1014.9
20260509050152 81 225 4.0 10.0 0.00 0.00 0.00 22 1014.8
20260509045154 80 270 4.0 7.0 0.00 0.00 0.00 21 1014.9
20260509044156 77 90 3.0 10.0 0.00 0.00 0.00 22 1014.7
20260509043159 77 90 5.0 13.0 0.00 0.00 0.00 22 1014.9
20260509042201 78 90 6.0 14.0 0.00 0.00 0.00 22 1014.9
20260509041202 79 90 5.0 10.0 0.00 0.00 0.00 21 1014.9
20260509040204 79 90 4.0 11.0 0.00 0.00 0.00 22 1015.0
20260509035207 81 90 2.0 8.0 0.00 0.00 0.00 19 1015.0
20260509034209 79 0 2.0 8.0 0.00 0.00 0.00 21 1015.0
20260509033211 79 0 2.0 7.0 0.00 0.00 0.00 23 1015.1
20260509032213 83 45 4.0 9.0 0.00 0.00 0.00 20 1015.1
20260509031216 81 135 3.0 8.0 0.00 0.00 0.00 20 1015.1
20260509030218 82 180 2.0 6.0 0.00 0.00 0.00 16 1015.2
20260509025220 80 225 3.0 8.0 0.00 0.00 0.00 14 1015.5
20260509024222 80 225 2.0 6.0 0.00 0.00 0.00 14 1015.5
20260509023225 80 90 2.0 11.0 0.00 0.00 0.00 15 1015.7
20260509022227 79 225 2.0 14.0 0.00 0.00 0.00 16 1015.9
20260509021229 78 45 6.0 11.0 0.00 0.00 0.00 16 1015.9
20260509020231 78 0 4.0 12.0 0.00 0.00 0.00 17 1016.2
20260509015234 78 68 8.0 14.0 0.00 0.00 0.00 16 1016.3
20260509014236 77 45 3.0 13.0 0.00 0.00 0.00 17 1016.4
20260509013238 76 45 2.0 10.0 0.00 0.00 0.00 19 1016.6
20260509012240 75 270 2.0 11.0 0.00 0.00 0.00 18 1016.6
20260509011243 76 45 6.0 12.0 0.00 0.00 0.00 20 1016.8
20260509010245 76 45 4.0 11.0 0.00 0.00 0.00 20 1016.9
20260509005247 76 45 4.0 10.0 0.00 0.00 0.00 19 1017.0
20260509004249 75 45 5.0 8.0 0.00 0.00 0.00 21 1017.0
20260509003252 74 90 2.0 10.0 0.00 0.00 0.00 21 1016.9
20260509002254 74 225 2.0 8.0 0.00 0.00 0.00 22 1016.9
20260509001256 73 45 2.0 11.0 0.00 0.00 0.00 24 1017.0
20260509000258 72 315 2.0 11.0 0.00 0.00 0.00 24 1017.2
20260508235301 71 90 5.0 11.0 0.00 0.00 0.00 25 1017.3
20260508234303 70 68 4.0 11.0 0.00 0.00 0.00 28 1017.4
20260508233305 70 45 6.0 11.0 0.00 0.00 0.00 27 1017.2
20260508232308 68 68 7.0 11.0 0.00 0.00 0.00 30 1017.4
20260508231310 68 45 6.0 11.0 0.00 0.00 0.00 31 1017.5
20260508230312 68 90 5.0 9.0 0.00 0.00 0.00 30 1017.5
20260508225314 68 270 2.0 8.0 0.00 0.00 0.00 31 1017.4
20260508224317 67 90 3.0 8.0 0.00 0.00 0.00 34 1017.5
20260508223319 65 0 3.0 16.0 0.00 0.00 0.00 34 1017.6
20260508222321 64 180 2.0 20.0 0.00 0.00 0.00 34 1017.5
20260508221324 65 90 6.0 11.0 0.00 0.00 0.00 36 1017.3
20260508220326 63 45 2.0 8.0 0.00 0.00 0.00 43 1017.1
20260508215328 62 90 0.0 2.0 0.00 0.00 0.00 48 1017.2
20260508214331 60 225 0.0 2.0 0.00 0.00 0.00 54 1017.0
20260508213333 59 90 1.0 2.0 0.00 0.00 0.00 58 1016.7
20260508212335 58 315 0.0 1.0 0.00 0.00 0.00 61 1016.7
20260508211337 57 135 0.0 2.0 0.00 0.00 0.00 60 1016.5
20260508210340 56 225 0.0 2.0 0.00 0.00 0.00 61 1016.4
20260508205342 56 135 1.0 2.0 0.00 0.00 0.00 59 1016.3
20260508204344 56 90 1.0 2.0 0.00 0.00 0.00 62 1016.2
20260508203347 56 90 2.0 4.0 0.00 0.00 0.00 61 1016.3
20260508202349 55 180 0.0 2.0 0.00 0.00 0.00 61 1016.2
20260508201351 55 180 0.0 1.0 0.00 0.00 0.00 61 1015.9
20260508200353 55 225 0.0 2.0 0.00 0.00 0.00 61 1015.7
20260508195356 55 180 1.0 2.0 0.00 0.00 0.00 62 1015.7
20260508194358 55 90 0.0 2.0 0.00 0.00 0.00 60 1015.5
20260508193400 56 0 0.0 0.0 0.00 0.00 0.00 61 1015.4
20260508192403 55 90 1.0 2.0 0.00 0.00 0.00 60 1015.3
20260508191405 56 0 0.0 1.0 0.00 0.00 0.00 60 1015.0
20260508190407 56 90 1.0 2.0 0.00 0.00 0.00 60 1014.9
20260508185410 56 90 1.0 2.0 0.00 0.00 0.00 59 1014.8
20260508184412 56 225 0.0 2.0 0.00 0.00 0.00 56 1014.8
20260508183415 56 135 0.0 2.0 0.00 0.00 0.00 56 1014.7
20260508182417 56 45 1.0 2.0 0.00 0.00 0.00 58 1014.5
20260508181419 57 45 0.0 2.0 0.00 0.00 0.00 56 1014.4
20260508180421 57 90 1.0 3.0 0.00 0.00 0.00 54 1014.3
20260508175424 58 225 0.0 2.0 0.00 0.00 0.00 53 1014.1
20260508174426 58 45 0.0 1.0 0.00 0.00 0.00 49 1014.0
20260508173429 58 180 0.0 2.0 0.00 0.00 0.00 50 1013.9
20260508172431 59 180 0.0 1.0 0.00 0.00 0.00 47 1013.7
20260508171433 59 0 0.0 2.0 0.00 0.00 0.00 48 1013.6
20260508170436 59 90 1.0 2.0 0.00 0.00 0.00 47 1013.6
20260508165438 59 0 0.0 2.0 0.00 0.00 0.00 46 1013.6
20260508164441 60 0 0.0 2.0 0.00 0.00 0.00 43 1013.6
20260508163443 60 270 2.0 3.0 0.00 0.00 0.00 42 1013.6
20260508162445 60 225 2.0 5.0 0.00 0.00 0.00 41 1013.4
20260508161448 61 315 1.0 2.0 0.00 0.00 0.00 41 1013.5
20260508160450 61 270 3.0 7.0 0.00 0.00 0.00 35 1013.3
20260508155452 61 315 0.0 5.0 0.00 0.00 0.00 38 1013.4
20260508154454 61 225 0.0 2.0 0.00 0.00 0.00 40 1013.4
20260508153457 61 135 0.0 3.0 0.00 0.00 0.00 39 1013.5
20260508152459 62 45 0.0 2.0 0.00 0.00 0.00 39 1013.2
20260508151502 62 315 0.0 2.0 0.00 0.00 0.00 37 1013.3
20260508150504 62 45 0.0 4.0 0.00 0.00 0.00 38 1013.2
20260508145506 63 0 0.0 3.0 0.00 0.00 0.00 34 1013.2
20260508144508 63 0 0.0 3.0 0.00 0.00 0.00 35 1013.1
20260508143511 64 270 3.0 6.0 0.00 0.00 0.00 28 1012.8
20260508142513 63 225 1.0 5.0 0.00 0.00 0.00 34 1013.1
20260508141515 63 315 0.0 2.0 0.00 0.00 0.00 34 1012.8
20260508140517 64 45 0.0 4.0 0.00 0.00 0.00 34 1012.7
20260508135520 65 315 1.0 5.0 0.00 0.00 0.00 23 1012.6
20260508134522 64 225 1.0 3.0 0.00 0.00 0.00 27 1012.6
20260508133524 65 293 3.0 8.0 0.00 0.00 0.00 23 1012.5
20260508132526 65 270 1.0 3.0 0.00 0.01 0.00 22 1012.4
20260508131529 66 270 0.0 3.0 0.00 0.02 0.00 23 1012.4
20260508130531 66 270 2.0 6.0 0.00 0.02 0.00 21 1012.4
20260508125533 66 225 1.0 3.0 0.00 0.02 0.00 22 1012.4
20260508124535 66 270 2.0 6.0 0.00 0.02 0.00 21 1012.4
20260508123538 67 225 2.0 5.0 0.00 0.02 0.00 23 1012.2
20260508122540 67 225 2.0 5.0 0.00 0.02 0.00 25 1012.2
20260508121542 67 270 1.0 4.0 0.00 0.02 0.00 30 1012.1
20260508120545 67 315 0.0 4.0 0.00 0.02 0.00 32 1011.9
20260508115547 68 270 2.0 7.0 0.00 0.02 0.00 31 1011.7
20260508114549 68 225 1.0 2.0 0.00 0.02 0.00 31 1011.6
20260508113552 68 248 0.0 4.0 0.00 0.02 0.00 30 1011.4
20260508112554 69 270 0.0 5.0 0.00 0.02 0.00 29 1011.1
20260508111556 69 270 3.0 6.0 0.00 0.02 0.00 28 1010.8
20260508110558 69 315 6.0 11.0 0.00 0.02 0.00 28 1010.6
20260508105601 70 270 3.0 11.0 0.00 0.02 0.00 27 1010.2
20260508104603 70 270 6.0 12.0 0.00 0.02 0.00 27 1009.9
20260508103605 70 270 5.0 13.0 0.00 0.02 0.00 28 1009.7
20260508102607 71 248 2.0 5.0 0.00 0.02 0.00 32 1009.4
20260508101609 71 270 4.0 7.0 0.00 0.02 0.00 31 1009.2
20260508100612 71 315 2.0 8.0 0.00 0.02 0.00 30 1008.9
20260508095614 72 270 3.0 9.0 0.00 0.02 0.00 28 1008.7
20260508094616 73 270 4.0 8.0 0.00 0.02 0.00 27 1008.5
20260508093619 73 270 5.0 8.0 0.00 0.02 0.00 25 1008.3
20260508092621 74 270 3.0 10.0 0.00 0.02 0.00 23 1008.1